Regional Weather Roundup
Issued by NWS Cleveland, OH

Home | Current Version | Previous Version | Graphics & Text | Print | Product List | Glossary On
Versions: 1 2 3 4 5 6 7 8 9 10 11 12 13 14 15 16 17 18 19 20 21 22 23 24 25 26 27 28 29 30 31 32 33 34 35 36 37 38 39 40 41 42 43 44 45 46 47 48 49 50
000
ASUS41 KCLE 231010
RWRCLE
OHIO REGIONAL WEATHER ROUNDUP
NATIONAL WEATHER SERVICE WILMINGTON, OH
600 AM EDT SAT AUG 23 2014

NOTE: "FAIR" INDICATES FEW OR NO CLOUDS BELOW 12,000 FEET WITH NO
SIGNIFICANT WEATHER AND/OR OBSTRUCTIONS TO VISIBILITY.

OHZ001>008-015>018-024>027-034-035-043-044-231100-
   NORTHWEST OHIO

CITY           SKY/WX    TMP DP  RH WIND       PRES   REMARKS
DEFIANCE       FOG       71  69  93 NE3       30.00R VSB 1/4
FINDLAY        CLEAR     70  68  93 NE5       29.99S FOG
TOLEDO EXPRESS PTCLDY    68  65  90 NE5       30.00S
TOLEDO METCALF MOCLDY    71  65  81 NE6       30.01S
LIMA           PTCLDY    71  68  90 E3        29.99S FOG
$$

OHZ009>014-019>023-028>033-038-089-231100-
   NORTHEAST OHIO

CITY           SKY/WX    TMP DP  RH WIND       PRES   REMARKS
CLE-HOPKINS    CLEAR     70  67  90 N6        30.02R
CLE-LAKEFRONT  CLEAR     70  68  93 E3        29.99R
CUY CO. ARPT   NOT AVBL
LORAIN-ELYRIA  PTCLDY    72  68  87 NW3       30.01R FOG
ASHTABULA      CLOUDY    67  66  97 CALM      30.02R FOG
AKRON-CANTON   PTCLDY    69  65  86 N5        30.00R FOG
WOOSTER        FOG       65  63  93 CALM      30.02R VSB 1/2
MANSFIELD      FOG       65  65 100 NW3       30.01S VSB 1/4
YOUNGSTOWN     PTCLDY    65  63  93 NE6       30.01R FOG
$$

OHZ042-051>053-060>062-070>072-077>081-231100-
  SOUTHWEST OHIO

CITY           SKY/WX    TMP DP  RH WIND       PRES   REMARKS
CINC-COVINGTON FOG       72  70  94 CALM      29.99R VSB 1/4
CINC-LUNKEN    FOG       70  70 100 CALM      29.98S VSB 1/4
HAMILTON       FOG       70  69  97 CALM      29.99S VSB 1
DAYTON         FOG       72  71  97 CALM      30.01R VSB 1/4
WRIGHT-PAT AFB FOG       70  70 100 CALM      29.99R VSB 1
DAYTON GENERAL MOCLDY    70  70 100 CALM      29.99R FOG
WILMINGTON     FOG       67  65  93 CALM      30.00R VSB 1/4
$$

OHZ036-037-039>041-045>050-054>059-063>069-073>076-082>088-231100-
  CENTRAL AND SOUTHEAST OHIO

CITY           SKY/WX    TMP DP  RH WIND       PRES   REMARKS
COLUMBUS       PTCLDY    71  68  90 CALM      29.98S FOG
OSU AIRPORT    FOG       71  70  96 NE3       29.99S VSB 1/4
BOLTON FIELD   FOG       68  68 100 CALM      29.99S VSB<1/4
RICKENBACK AFB FOG       70  66  87 CALM      29.98R VSB<1/4
NEWARK         CLOUDY    70  69  97 N3        29.98S FOG
MARION         FOG       67  65  93 N3        30.00R VSB 1/4
LANCASTER      FOG       68  66  93 CALM      29.99R VSB 1/4
ZANESVILLE     FOG       69  68  96 CALM      29.98R VSB 1/2
NEW PHILLY     CLOUDY    69  69 100 NE3       30.00R FOG
$$


USA.gov is the U.S. government's official web portal to all federal, state and local government web resources and services.